Probability
0 0 0 0 0 0 0 0 0 0 1 2 3 2 1 0 0 1 1 0 0 0 0 0 0 0 0 0 0 0 0 0 0 0 0 0 0 0 0 0 0 0 0
0 0 0 0 0 0 0 0 0 0 1 2 2 1 0 0 0 1 2 1 0 0 0 0 0 0 0 0 0 0 0 0 0 0 0 0 0 0 0 0 0 0 0
0 0 0 0 0 0 0 0 0 0 0 1 1 0 0 0 0 1 1 1 0 0 0 0 0 0 0 0 0 0 0 0 0 0 0 0 0 0 0 0 0 0 0
0 0 0 0 0 0 0 0 0 0 0 0 0 0 0 0 0 0 0 0 0 0 0 0 1 1 1 1 0 0 0 0 0 0 0 0 0 0 0 0 0 0 0
0 0 0 0 0 0 0 0 0 0 0 0 0 0 0 0 0 0 0 0 0 0 0 0 1 2 2 1 0 0 0 0 0 0 0 0 0 0 0 0 0 0 0
0 0 0 0 0 0 0 0 0 0 0 0 0 0 0 0 0 0 0 0 0 0 0 0 0 1 1 0 0 0 0 0 0 0 0 0 0 0 0 0 0 0 0
0 0 0 0 0 0 0 0 0 0 0 0 0 0 0 0 0 0 0 0 0 0 0 0 0 0 0 0 0 0 0 0 0 0 0 0 0 0 0 0 0 0 0
0 0 0 0 0 0 0 0 0 0 0 0 0 0 0 0 0 0 0 0 0 0 0 0 0 0 0 0 0 0 0 0 0 0 0 0 0 0 0 0 0 0 0
0 0 0 0 0 0 0 0 0 0 0 0 0 0 0 0 0 0 0 0 0 0 0 0 0 0 0 0 0 1 1 0 0 0 0 0 1 1 0 0 0 0 0
0 0 0 0 0 0 0 0 0 0 0 0 0 0 0 0 0 0 0 0 0 0 0 0 0 0 0 0 0 1 1 0 0 0 0 0 1 1 0 0 0 0 0
0 0 0 0 0 0 0 0 0 0 0 0 0 0 0 0 0 0 0 0 0 0 0 0 0 0 0 0 0 1 1 0 0 0 0 0 1 1 0 0 0 0 0
0 0 0 0 0 0 0 0 0 0 0 0 0 0 0 0 0 0 0 0 0 0 0 0 0 0 0 0 0 0 0 0 0 0 0 0 0 0 0 0 0 0 1
0 0 0 0 0 0 0 0 0 0 0 0 0 0 0 0 0 0 0 0 0 0 0 0 0 0 0 0 0 0 0 0 0 1 1 1 0 0 0 0 0 1 1
0 0 0 0 0 0 0 0 0 0 0 0 0 0 0 0 0 0 0 0 0 0 0 0 0 0 0 0 0 0 0 0 0 1 2 2 1 1 1 0 1 2 1
0 0 0 0 0 0 0 0 0 0 0 0 0 0 0 0 0 0 0 0 0 0 0 0 0 0 0 0 0 0 0 0 0 1 2 2 2 2 2 2 2 2 1
0 0 0 0 0 0 0 0 0 0 0 0 0 0 0 0 0 0 0 0 0 0 0 0 0 0 0 0 0 0 0 0 0 0 0 1 1 1 2 2 3 3 2
0 0 0 0 0 0 0 0 0 0 0 0 0 0 0 0 0 0 0 0 0 0 0 0 0 0 0 0 0 0 0 0 0 0 0 0 0 0 1 1 2 2 2
0 0 0 0 0 0 0 0 0 0 0 0 0 0 0 0 0 0 0 0 0 0 0 0 0 0 0 0 0 0 0 0 0 0 0 0 0 0 0 0 1 1 1
0 0 0 0 0 0 0 0 0 0 0 0 0 0 0 0 0 0 0 0 0 0 0 0 0 0 0 0 0 0 0 0 0 0 0 0 0 0 0 0 0 0 0
0 0 0 0 0 0 0 0 0 0 0 0 0 0 0 0 0 0 0 0 0 0 0 0 0 0 0 0 0 0 0 0 0 0 0 0 0 0 0 0 0 0 0
0 0 0 0 0 0 0 0 0 0 0 0 0 0 0 0 0 0 0 0 0 0 0 0 0 0 0 0 0 0 0 0 0 0 0 0 0 0 0 0 0 0 0
0 0 0 0 0 0 0 0 0 0 0 0 0 0 0 0 0 0 0 0 0 0 0 0 0 0 0 0 0 0 0 0 0 0 0 0 0 0 0 0 0 0 0
0 0 0 0 0 0 0 0 0 0 0 0 0 0 0 0 0 0 0 0 0 0 0 0 0 0 0 0 0 0 0 0 0 0 0 0 0 0 0 0 0 0 0
0 0 0 0 0 0 0 0 0 0 0 0 0 0 0 0 0 0 0 0 0 0 0 0 0 0 0 0 0 0 0 0 0 0 0 0 0 0 0 0 0 0 0
0 0 0 0 0 0 0 0 0 0 0 0 0 0 0 0 0 0 0 0 0 0 0 0 0 0 0 0 0 0 0 0 0 0 0 0 0 0 0 0 0 0 0
0 0 0 0 0 0 0 0 0 0 0 0 0 0 0 0 0 0 0 0 0 0 0 0 0 0 0 0 0 0 0 0 0 0 0 0 0 0 0 0 0 0 0
Wind_Speed
1 1 2 7 9 10 10 10 11 11 11 12 12 12 12 12 12 11 11 10 10 10 10 10 9 9 10 10 9 9 8 8 8 8 7 7 6 6 6 7 6 4 7
0 1 5 7 9 10 10 10 10 11 11 11 12 11 11 11 11 11 10 10 10 10 10 10 10 9 9 9 9 8 8 8 9 8 8 7 6 5 6 6 6 4 6
2 3 4 8 9 10 10 10 11 11 11 11 10 10 10 10 10 10 10 9 9 9 10 10 9 9 9 9 9 8 8 8 8 9 8 5 4 6 6 6 6 6 6
4 3 4 9 9 9 10 10 10 10 10 10 10 9 9 9 9 9 9 9 9 9 9 9 9 9 9 9 9 8 8 8 8 8 5 5 4 6 7 6 6 6 6
4 4 4 8 8 9 9 9 10 9 9 9 9 9 9 9 8 8 8 8 8 8 8 8 9 9 9 8 8 8 8 8 9 7 5 4 4 6 7 6 6 6 6
4 3 4 8 8 8 9 9 9 9 9 9 9 9 9 8 7 7 8 7 7 8 8 8 8 8 8 8 8 8 8 9 8 5 4 4 3 5 7 7 6 6 6
4 3 3 7 7 8 8 8 9 9 9 9 8 8 8 7 7 7 7 7 7 7 8 7 7 8 8 8 8 9 8 8 5 4 3 3 3 6 7 7 6 6 6
4 3 4 6 8 8 8 8 7 7 7 8 7 7 7 7 6 6 7 7 7 7 7 8 7 8 8 8 8 9 8 7 5 4 3 3 4 6 6 6 6 6 6
4 4 4 4 5 7 7 7 7 7 7 7 7 7 6 6 6 6 6 6 7 7 7 8 7 8 8 8 9 9 9 8 4 2 3 2 4 6 6 6 6 6 6
4 4 4 4 5 4 4 6 7 8 8 7 7 7 7 7 7 7 7 6 6 7 7 7 7 8 8 8 9 9 9 7 4 3 2 3 5 6 7 7 7 7 7
2 2 3 3 4 4 3 5 6 7 8 7 7 8 7 5 5 5 7 7 7 8 8 8 9 9 9 8 9 9 7 3 3 3 2 4 6 7 7 7 7 7 7
1 1 2 2 3 3 3 4 3 3 4 4 4 4 3 3 4 5 8 9 9 9 9 9 9 8 7 4 6 7 3 4 3 3 3 6 7 7 8 8 7 7 7
1 0 1 2 2 2 2 2 2 2 2 3 4 3 3 3 3 4 3 4 5 6 5 5 6 4 4 3 3 3 4 3 3 3 4 8 7 8 8 8 8 8 8
2 1 1 2 2 2 2 2 2 1 2 2 2 3 2 2 3 3 2 3 3 2 3 3 3 4 5 5 5 5 5 4 3 3 4 9 9 9 9 9 9 9 8
3 2 1 2 2 2 2 1 2 2 2 2 2 2 3 2 2 2 2 3 3 3 3 3 4 4 5 5 5 6 6 6 5 5 4 11 12 11 11 11 11 10 10
3 3 2 2 2 3 2 2 2 2 2 2 2 2 3 2 2 2 3 3 3 3 3 3 4 4 4 4 6 6 6 5 6 6 5 8 13 13 13 13 12 12 11
4 3 3 3 3 3 3 3 2 2 2 3 2 3 3 3 3 3 2 3 2 2 3 4 4 4 5 5 6 6 5 6 6 6 6 5 6 12 14 13 12 12 12
4 4 3 4 4 4 3 3 2 2 3 2 2 3 3 3 3 3 3 2 2 2 3 4 4 4 4 4 4 4 5 5 6 6 6 6 5 6 9 14 13 13 13
5 4 4 4 4 4 4 3 3 3 3 3 3 3 3 3 3 3 3 2 3 3 3 3 4 3 4 4 5 5 5 5 5 6 6 7 6 6 6 10 14 15 14
4 4 4 4 4 4 4 4 3 3 3 3 3 3 3 3 4 3 3 3 3 3 3 4 4 4 3 4 6 6 5 5 5 6 5 5 5 7 7 7 7 9 15
4 4 4 4 3 3 3 3 2 1 1 2 2 3 3 3 4 4 3 3 3 3 3 3 3 5 4 2 4 4 4 5 6 5 5 5 6 6 7 7 6 6 6
5 5 4 4 4 3 3 2 2 2 2 1 2 3 4 4 3 3 4 3 3 3 4 3 3 3 2 3 2 3 3 4 5 6 5 5 6 5 6 8 7 7 6
7 6 5 4 4 3 4 3 3 3 3 2 2 2 3 3 3 3 3 3 3 3 3 2 2 3 2 2 2 3 3 1 1 3 5 5 6 5 5 5 7 7 7
7 6 5 5 4 4 4 4 5 3 2 1 1 1 2 3 4 4 3 4 3 3 3 2 2 2 3 2 2 3 2 3 3 1 3 4 5 6 6 6 6 7 7
6 6 5 5 4 4 4 5 5 3 2 1 2 3 3 3 3 4 4 4 3 3 3 3 3 3 2 2 2 1 3 3 3 3 1 2 3 4 4 5 5 5 6
5 5 5 5 4 4 5 5 6 6 4 4 3 2 2 2 2 3 3 3 3 3 3 3 3 4 3 3 3 2 2 2 1 2 2 0 1 3 3 4 5 5 5
Wind_Direction
314 294 111 105 101 101 100 100 103 101 101 100 98 95 93 92 92 92 91 89 87 85 81 79 78 76 75 73 73 73 71 66 65 64 58 61 67 72 77 78 75 70 80
170 104 110 106 102 101 101 99 99 98 97 97 94 92 92 92 91 89 88 88 86 84 82 78 75 73 71 70 70 73 72 67 66 63 54 47 52 69 82 81 81 79 79
86 87 106 107 103 102 101 100 98 96 96 95 93 92 91 91 91 89 86 85 83 81 81 77 75 71 69 67 66 69 69 67 67 63 49 28 29 64 83 79 83 84 81
85 79 100 105 104 104 102 101 100 97 95 96 96 94 90 89 89 87 86 85 82 80 78 73 70 69 65 63 66 68 71 69 68 60 42 29 31 63 75 75 75 78 80
84 73 91 101 106 107 103 100 100 99 95 95 94 93 91 89 86 83 83 82 79 79 78 72 66 64 63 63 66 70 73 72 67 56 42 32 25 61 68 67 68 71 73
83 75 96 104 105 107 104 99 98 97 92 92 92 91 90 87 83 82 80 77 75 77 78 75 70 66 62 63 66 68 69 68 61 47 39 27 21 58 66 66 64 70 74
83 67 82 104 105 103 103 100 97 93 91 91 90 87 86 83 82 79 75 71 70 70 72 71 69 64 60 61 64 66 69 70 65 49 38 20 27 60 66 67 65 67 72
88 66 54 83 94 94 97 96 92 89 87 85 83 80 78 75 72 71 69 65 64 65 63 64 63 59 60 61 63 68 68 68 64 50 33 19 47 62 63 64 66 66 66
70 63 47 45 59 68 78 86 85 80 81 81 75 70 67 63 62 61 61 61 58 56 55 57 61 62 63 62 63 64 62 65 60 39 35 23 54 62 60 59 61 64 64
61 55 49 41 43 43 42 64 73 73 71 71 70 65 57 50 47 43 40 45 49 47 48 52 58 65 67 64 63 60 55 56 45 36 18 28 53 61 59 59 61 62 62
68 42 44 42 39 40 38 48 51 56 53 53 52 55 50 35 29 29 30 43 48 45 45 52 60 65 66 60 59 58 52 44 39 33 14 41 52 58 58 58 59 61 60
125 45 51 52 45 40 45 46 33 38 36 42 45 44 40 36 29 36 32 42 48 51 52 54 58 60 58 49 53 56 47 41 41 28 34 47 52 56 57 55 56 59 59
159 109 73 78 61 58 50 50 33 32 33 36 43 47 45 41 33 34 30 29 34 44 44 45 50 51 56 55 55 55 48 47 40 26 32 46 54 58 57 53 53 57 56
137 134 105 106 85 74 73 62 46 40 45 43 38 46 52 47 40 33 31 26 32 34 47 49 56 58 60 58 61 60 51 49 42 30 29 47 58 59 55 51 52 52 52
136 137 132 120 112 97 82 71 66 48 59 57 47 43 61 63 51 41 32 32 32 39 56 59 61 64 65 62 62 63 54 48 46 40 29 45 51 51 51 49 49 50 49
154 155 136 123 115 104 95 88 75 59 62 64 54 52 69 72 67 58 44 37 34 41 55 68 70 73 67 67 63 59 55 49 48 44 36 37 42 45 46 47 45 44 45
155 146 138 131 107 105 100 90 80 66 69 64 54 58 71 73 74 74 62 47 36 45 63 69 66 70 73 68 59 53 53 49 50 45 40 36 33 40 43 44 43 42 42
147 140 141 128 112 106 98 87 76 67 66 60 60 60 66 72 77 77 69 52 44 57 67 75 68 71 68 68 62 49 47 46 45 45 44 39 34 32 33 40 41 42 40
151 140 124 115 117 113 102 88 75 65 61 55 53 54 56 64 70 77 71 55 56 64 62 78 68 78 79 76 72 56 44 44 41 45 45 41 38 37 32 34 38 39 37
145 134 126 116 112 112 100 82 65 52 44 47 47 46 54 58 67 74 71 55 60 72 62 67 78 67 74 82 80 63 46 42 42 40 37 38 39 40 38 34 28 29 35
144 141 144 137 135 124 104 98 91 71 37 37 40 44 54 60 66 71 71 59 60 75 77 81 83 75 60 60 79 60 39 41 45 35 31 37 36 37 39 37 32 27 22
165 162 157 153 148 142 127 123 119 115 87 63 38 46 45 56 60 75 77 74 68 79 73 70 82 86 57 38 90 90 44 14 18 26 29 36 30 30 37 37 33 31 25
175 177 174 169 157 148 134 111 87 67 54 42 34 35 29 50 61 70 78 79 71 80 89 79 88 104 104 42 53 116 123 153 357 2 22 30 27 31 27 27 32 27 24
186 177 170 166 160 155 144 137 133 132 129 148 108 69 49 53 61 64 73 75 74 73 81 79 76 87 109 92 50 49 91 138 129 41 356 10 24 32 25 25 24 23 21
180 171 168 161 159 160 155 150 139 132 135 117 89 81 63 49 53 61 68 72 71 69 73 74 74 74 85 105 98 83 70 63 81 120 73 349 8 13 20 20 22 19 16
174 168 165 161 165 162 157 154 153 152 147 129 116 107 82 55 44 52 72 73 74 71 70 74 78 80 78 86 86 87 107 108 115 117 130 80 7 345 3 18 22 14 15